Voltar ao catálogo

KUIPER-00353

AtivoComunicaçõesLEO
NORAD 68865·PAYLOAD·🇺🇸 United States

Lançado Apr 28, 2026 de Cape Canaveral Space Force Station

Loading…

Próximas Passagens (próximas 24 horas)

TLE

AtualizadoSource: CelesTrak SupGP

Época: Sep 15, 2026, 04:50 UTC

1 68865C 26095B   26258.20185185 -.00014529  00000+0 -19022-2 0  2584
2 68865  51.8992 197.6146 0000696 100.2895 275.9013 14.79937770    11

Acompanhe KUIPER-00353 em tempo real com AllMySat

Download on the App Store